Home   Weather   Portland   Past weeks
Flag for USA

Past Weather in Portland, Maine, USA — Yesterday and Last 2 Weeks

Now
35 °F

Overcast.


Feels Like: 29 °F
Forecast: 45 / 39 °F
Wind: 7 mph from West

Location: Portland - Portland International Jetport

Current Time: Apr 10, 2020 at 3:08:57 am

Latest Report: Apr 10, 2020 at 1:51 am


Visibility: 10 mi

Pressure: 29.04 "Hg

Humidity: 85%

Dew Point: 31 °F

Location of PortlandLocation

Past Weather in Portland — Graph

°F

Portland Temperature Yesterday

Maximum temperature yesterday: 45 °F (at 9:51 am)
Minimum temperature yesterday: 34 °F (at 4:51 pm)
Average temperature yesterday: 40 °F

High & Low Weather Summary for the Past Weeks

 TemperatureHumidityPressure
High59 °F (Apr 6, 1:51 pm)90% (Mar 30, 8:51 am)30.25 "Hg (Mar 30, 8:51 am)
Low6 °F (Mar 31, 2:51 pm)16% (Apr 6, 2:51 pm)29.04 "Hg (Apr 10, 1:51 am)
Average42 °F69%29.85 "Hg
* Reported Mar 26 1:19 am — Apr 10 1:51 am, Portland. Weather by CustomWeather, © 2020

Note: Actual official high and low records may vary slightly from our data, if they occured in-between our weather recording intervals... More about our weather records

Portland Weather History for the Previous 24 Hours

Scroll right to see more
 ConditionsComfort  
Time TempWeatherWind HumidityBarometerVisibility
1:51 am
Fri, Apr 10
35 °FOvercast.7 mph85%29.04 "Hg10 mi
12:51 am35 °FLight rain. Overcast.10 mph85%29.06 "Hg10 mi
11:51 pm
Thu, Apr 9
35 °FOvercast.15 mph88%29.05 "Hg10 mi
10:51 pm35 °FLight rain. Fog.17 mph85%29.04 "Hg6 mi
9:58 pm34 °FLight snow. Fog.18 mph88%29.05 "Hg1 mi
8:58 pm34 °FLight snow. Fog.16 mph88%29.05 "Hg1 mi
7:51 pm34 °FLight snow. Fog.8 mph88%29.05 "Hg2 mi
7:09 pm34 °FLight snow. Fog.17 mph88%29.05 "Hg1 mi
6:51 pm34 °FLight snow. Fog.16 mph88%29.08 "Hg1 mi
5:51 pm34 °FLight snow. Fog.18 mph88%29.14 "Hg1 mi
5:33 pm34 °FLight snow. Fog.16 mph88%29.15 "Hg1 mi
5:12 pm34 °FSnow. Fog.20 mph88%29.17 "Hg1 mi
4:51 pm34 °FLight rain. Low clouds.14 mph88%29.21 "Hg1 mi
4:18 pm36 °FRain. Fog.12 mph85%29.25 "Hg1 mi
3:36 pm38 °FRain. Fog.18 mph86%29.26 "Hg2 mi
3:05 pm41 °FLight rain. Mostly cloudy.18 mph80%29.27 "Hg2 mi
2:51 pm42 °FThundershowers. Mostly cloudy.15 mph79%29.29 "Hg2 mi
1:51 pm42 °FLight rain. Fog.24 mph82%29.30 "Hg2 mi
12:51 pm43 °FLight rain. Fog.15 mph86%29.33 "Hg5 mi
11:51 am44 °FLow clouds.12 mph85%29.39 "Hg9 mi
10:51 am45 °FLow clouds.15 mph82%29.44 "Hg10 mi
9:51 am45 °FLow clouds.12 mph82%29.47 "Hg10 mi
8:51 am44 °FLow clouds.9 mph82%29.48 "Hg10 mi
8:05 am44 °FLow clouds.9 mph82%29.53 "Hg10 mi
7:19 am44 °FMostly cloudy.7 mph79%29.56 "Hg10 mi
6:51 am43 °FMostly cloudy.6 mph82%29.54 "Hg10 mi
6:12 am42 °FMostly cloudy.3 mph79%29.55 "Hg10 mi
5:51 am42 °FPassing clouds.3 mph79%29.57 "Hg10 mi
4:51 am43 °FPassing clouds.5 mph76%29.57 "Hg10 mi
3:51 am43 °FMostly cloudy.6 mph79%29.59 "Hg10 mi
Weather by CustomWeather, © 2020

See weather overview

Advertising